User: anonymous   Login
Location: Unspecified
(0.0000°N, 0.0000°E)
Time: 21:43:08
(UTC+00:00)
Language:

Tiros N - Orbit

View from above orbital plane
View from above orbital plane
View from above satellite
View from above satellite

Ground track
Ground track

The orbit data is extracted from the following two-line orbital elements,

1 11060U 78096A   17083.95171245 +.00000032 +00000-0 +37744-4 0  9995
2 11060 098.9057 133.7254 0010050 216.8346 143.2140 14.18149641200803
Epoch (UTC): 24 March 2017 22:50:27
Eccentricity: 0.0010050
inclination: 98.9057°
perigee height: 824 km
apogee height: 839 km
right ascension of ascending node: 133.7254°
argument of perigee: 216.8346°
revolutions per day: 14.18149641
mean anomaly at epoch: 143.2140°
orbit number at epoch: 20080

The dashed part of the orbit path shows where the satellite is in the earth's shadow,  

DLR